TimeAKST,TemperatureF,Dew PointF,Humidity,Sea Level PressureIn,VisibilityMPH,Wind Direction,Wind SpeedMPH,Gust SpeedMPH,PrecipitationIn,Events,Conditions,WindDirDegrees,DateUTC
12:55 AM,-23.1,-29.6,72,30.57,10.0,ENE,9.2,-,N/A,,Scattered Clouds,60,2013-01-28 09:55:00
1:55 AM,-22.7,-29.2,72,30.57,10.0,NE,8.1,-,N/A,,Partly Cloudy,50,2013-01-28 10:55:00
3:55 AM,-26.9,-32.3,75,30.55,10.0,NE,5.8,-,N/A,,Mostly Cloudy,50,2013-01-28 12:55:00
4:55 AM,-28.5,-35.5,69,30.53,10.0,East,8.1,-,N/A,,Mostly Cloudy,80,2013-01-28 13:55:00
5:55 AM,-27.0,-33.0,73,30.50,10.0,NE,10.4,-,N/A,,Mostly Cloudy,50,2013-01-28 14:55:00
6:55 AM,-26.0,-32.3,72,30.45,10.0,NE,9.2,-,N/A,,Scattered Clouds,50,2013-01-28 15:55:00
7:55 AM,-23.6,-30.8,69,30.41,10.0,ENE,11.5,19.6,N/A,,Mostly Cloudy,60,2013-01-28 16:55:00
8:55 AM,-22.5,-28.7,73,30.39,10.0,NNE,11.5,18.4,N/A,,Scattered Clouds,30,2013-01-28 17:55:00
9:55 AM,-19.1,-26.7,68,30.35,10.0,NE,12.7,18.4,N/A,,Scattered Clouds,40,2013-01-28 18:55:00
10:55 AM,-17.9,-25.4,68,30.31,10.0,NE,13.8,21.9,N/A,,Partly Cloudy,40,2013-01-28 19:55:00
11:55 AM,-14.3,-22.4,67,30.25,10.0,NNE,13.8,25.3,N/A,,Mostly Cloudy,30,2013-01-28 20:55:00
12:55 PM,-11.7,-21.3,63,30.19,10.0,NNE,16.1,26.5,N/A,,Clear,30,2013-01-28 21:55:00
1:55 PM,-5.6,-17.9,56,30.12,10.0,NNE,18.4,31.1,N/A,,Mostly Cloudy,30,2013-01-28 22:55:00
2:55 PM,-4.0,-17.5,52,30.06,10.0,NNE,23.0,36.8,N/A,,Mostly Cloudy,20,2013-01-28 23:55:00
3:47 PM,-2.2,-16.6,50,30.06,10.0,NNE,15.0,28.8,N/A,Snow,Light Snow Showers,20,2013-01-29 00:47:00
3:55 PM,-3.1,-16.1,54,30.05,10.0,NNE,12.7,29.9,N/A,Snow,Light Snow Showers,30,2013-01-29 00:55:00
4:27 PM,-2.2,-14.8,55,30.05,10.0,NE,10.4,26.5,N/A,,Mostly Cloudy,40,2013-01-29 01:27:00
4:55 PM,-5.4,-15.3,62,30.07,10.0,NE,9.2,16.1,N/A,,Overcast,40,2013-01-29 01:55:00
5:55 PM,-3.3,-14.8,58,30.03,10.0,NE,10.4,18.4,N/A,,Overcast,40,2013-01-29 02:55:00
6:55 PM,-2.9,-14.6,57,30.01,10.0,NNE,11.5,19.6,N/A,,Overcast,30,2013-01-29 03:55:00
7:55 PM,-3.8,-13.5,63,29.99,10.0,NE,8.1,-,N/A,,Overcast,50,2013-01-29 04:55:00
8:55 PM,-2.6,-13.2,61,29.96,10.0,NE,8.1,15.0,N/A,,Overcast,50,2013-01-29 05:55:00
9:55 PM,-3.1,-13.0,63,29.93,10.0,ENE,5.8,-,N/A,,Overcast,70,2013-01-29 06:55:00
10:55 PM,-3.1,-14.4,58,29.91,10.0,NE,5.8,-,N/A,,Mostly Cloudy,50,2013-01-29 07:55:00
11:55 PM,-3.3,-14.3,59,29.88,10.0,NE,9.2,17.3,N/A,,Overcast,40,2013-01-29 08:55:00